User: anonymous   Login
Location: Ostrava
(49.8330°N, 18.2830°E)
Time: 21:31:54
(UTC+01:00)
Language:

Cosmos 1400 Rocket - Orbit

View from above orbital plane
View from above orbital plane
View from above satellite
View from above satellite

Ground track
Ground track

The orbit data is extracted from the following two-line orbital elements,

1 13403U 82079B   17347.17098259  .00000990  00000-0  64163-4 0  9992
2 13403  81.1714  64.3236 0034319  48.8152 311.6022 15.06744234923675
Epoch (UTC): 13 December 2017 04:06:12
Eccentricity: 0.0034319
inclination: 81.1714°
perigee height: 522 km
apogee height: 570 km
right ascension of ascending node: 64.3236°
argument of perigee: 48.8152°
revolutions per day: 15.06744234
mean anomaly at epoch: 311.6022°
orbit number at epoch: 92367

The dashed part of the orbit path shows where the satellite is in the earth's shadow,  

DLR